Showing default

FENGYUN 1C, 25730

Orbit data source: Space-Track

FENGYUN 1C, 25730 is a payload satellite owned by CNMSC (CN) in SSO that was launched on Mon, 10 May 1999 UTC via a CHANG ZHENG 4B launch vehicle from the Taiyaun Space Center, China (TSC). Payload-class satellites include a variety of spacecraft equipped with specific instruments for various scientific and technological missions. These include communications satellites like Starlink; space stations such as the ISS; scientific satellites like the Hubble; Earth observation satellites from companies like Planet Labs, Umbra, and HawkEye 360; GPS; miniature CubeSats for education and research; and military/defense satellites.

Loading next visibility...
Identifier
25730, 1999-025A
Orbit
SSO
Country
Flag of CNCN / PRC
Related business
Manufacturer
SISE
Mission
Non-operational Civil Imaging
Bus & Motor
FY-1, Unknown motor
Mass
958 kg wet, ~958 kg dry
Launch date (UTC)
1999-05-10 (27 years ago)
Launch vehicle
CHANG ZHENG 4B
Launch site
Taiyaun Space Center, China (TSC)
Object type
Payload
Rocket body
Debris
Shape & HBR
Box + 2 Pan, 4.3 m
Radar Cross Section
5.659 m², Medium (>0.1 m² and < 1m²)

Expand to show TLE details & history
Last TLE update: 22 hours ago

TLE from 22 hours ago
0 FENGYUN 1C
1 25730U 99025A   25341.06034285  .00004441  00000-0  18779-2 0  9992
2 25730  98.8845  47.0151 0010887  83.6541 276.5878 14.26005295370568
Epoch: 2025-12-07T01:26Z
TLE epoch observation values (Epoch: 2025-12-07T01:26:53.622Z)
Latitude
0.00001°
Longitude
-50.78748°
Altitude
807.143 km
Speed
7.45 km/s
True Right ascension
03h 08m 03s
True Declination
0° 00' 00"
Sunlit
Object was in full shadow at epoch
Visualization orbit readout
Latitude
Unknown
Longitude
Unknown
Altitude
Unknown
Speed
Unknown
Apparent Right ascension
Unknown
Apparent Declination
Unknown
Sunlit
N/A
Visualization observer readout
Local Sidereal Time
21:12:29
Azimuth
Unknown
Elevation
Unknown
Doppler factor
Unknown
Orbital elements
Apogee altitude
810.091 km
Perigee altitude
794.456 km
Semi-major axis
7,180.411 km
Eccentricity
0.00109
Inclination
98.8845°
RAAN
47.0151°
Arg. of periapsis
83.6541°
True anomaly
276.46385°
Mean anomaly
276.5878°
Eccentric anomaly
276.52583°
Mean motion
3.56713 °/min
Orbital period
100.92 mins
BSTAR
0.0018779
Loading maneuver chart data...
Computing Atmospheric mass density...

Documentation

Showing up to 5 results
|